Change the Weather History Date:

Tuesday, October 2, 2012

  Actual Average Record
Temperature  
Mean Temperature 52 °F -  
Max Temperature 69 °F 68 °F 107 °F (1998)
Min Temperature 35 °F 42 °F 20 °F (1974)
Degree Days  
Heating Degree Days 13    
Growing Degree Days 2 (Base 50)    
Moisture  
Dew Point 38 °F    
Average Humidity 59    
Maximum Humidity 93    
Minimum Humidity 31    
Precipitation  
Precipitation 0.00 in - - ()
Sea Level Pressure  
Sea Level Pressure 29.92 in    
Wind  
Wind Speed 3 mph (SSE)    
Max Wind Speed 8 mph    
Max Gust Speed -    
Visibility 9 miles    
Events      
Averages and records for this station are not official NWS values.
T = Trace of Precipitation, MM = Missing Value Source: NWS Daily Summary

Daily Weather History Graph

Daily Weather History Graph

Search for Another Location

Airport or City:

Trip Planner

Search our weather history database for the weather conditions in past years. The results will help you decide how hot, cold, wet, or windy it might be!

Date:

Astronomy

Oct. 02, 2012 Rise Set
Actual Time 7:12 AM CDT 6:50 PM CDT
Civil Twilight 6:43 AM CDT 7:19 PM CDT
Nautical Twilight 6:09 AM CDT 7:53 PM CDT
Astronomical Twilight 5:35 AM CDT 8:27 PM CDT
Moon 7:55 PM CDT (10/2) 9:48 AM CDT (10/2)
Length of Visible Light 12h 36m
Length of Day
11h 38m
Waning Gibbous, 94% of the Moon is Illuminated
Oct 2
Waning Gibbous
Oct 8
Last Quarter
Oct 15
New
Oct 21
First Quarter
Oct 29
Full

Hourly Weather History & Observations

Time (CDT) Temp. Windchill Dew Point Humidity Pressure Visibility Wind Dir Wind Speed Gust Speed Precip Events Conditions
12:13 AM 55.4 °F - 37.4 °F 51% 29.95 in 10.0 mi NNW 8.1 mph - N/A   Clear
12:33 AM 53.6 °F - 37.4 °F 54% 29.94 in 10.0 mi NNW 8.1 mph - N/A   Clear
12:54 AM 53.6 °F - 37.4 °F 54% 29.95 in 10.0 mi North 6.9 mph - N/A   Clear
1:34 AM 51.8 °F - 35.6 °F 54% 29.96 in 10.0 mi North 4.6 mph - N/A   Clear
2:13 AM 51.8 °F - 35.6 °F 54% 29.96 in 10.0 mi NNW 5.8 mph - N/A   Clear
2:34 AM 51.8 °F - 35.6 °F 54% 29.96 in 10.0 mi NNW 5.8 mph - N/A   Clear
3:14 AM 48.2 °F - 35.6 °F 62% 29.95 in 10.0 mi Calm Calm - N/A   Clear
3:33 AM 46.4 °F - 35.6 °F 66% 29.95 in 10.0 mi Calm Calm - N/A   Clear
3:53 AM 44.6 °F - 35.6 °F 71% 29.95 in 10.0 mi Calm Calm - N/A   Clear
3:54 AM 42.8 °F - 35.6 °F 76% 29.95 in 10.0 mi Calm Calm - N/A   Clear
4:30 AM 41.0 °F - 35.6 °F 81% 29.95 in 10.0 mi Calm Calm - N/A   Clear
4:48 AM 37.4 °F - 35.6 °F 93% 29.95 in 7.0 mi Calm Calm - N/A   Clear
5:13 AM 37.4 °F - 33.8 °F 87% 29.95 in 10.0 mi Calm Calm - N/A   Clear
5:33 AM 37.4 °F - 35.6 °F 93% 29.96 in 10.0 mi Calm Calm - N/A   Clear
5:53 AM 37.4 °F - 33.8 °F 87% 29.96 in 10.0 mi Calm Calm - N/A   Clear
6:14 AM 35.6 °F - 33.8 °F 93% 29.97 in 7.0 mi Calm Calm - N/A   Clear
6:33 AM 35.6 °F - 33.8 °F 93% 29.97 in 10.0 mi Calm Calm - N/A   Clear
6:53 AM 37.4 °F - 35.6 °F 93% 29.97 in 5.0 mi Calm Calm - N/A   Clear
7:14 AM 37.4 °F - 35.6 °F 93% 29.97 in 3.0 mi Calm Calm - N/A   Clear
7:33 AM 35.6 °F - 33.8 °F 93% 29.97 in 3.0 mi Calm Calm - N/A   Clear
7:53 AM 39.2 °F - 37.4 °F 93% 29.97 in 4.0 mi Calm Calm - N/A   Clear
8:14 AM 42.8 °F - 37.4 °F 81% 29.97 in 2.0 mi Calm Calm - N/A   Clear
8:33 AM 46.4 °F - 41.0 °F 81% 29.97 in 4.0 mi Calm Calm - N/A   Haze
8:54 AM 48.2 °F - 39.2 °F 71% 29.97 in 10.0 mi Calm Calm - N/A   Clear
9:13 AM 51.8 °F - 41.0 °F 67% 29.97 in 7.0 mi Calm Calm - N/A   Clear
9:33 AM 53.6 °F - 42.8 °F 67% 29.97 in 7.0 mi Calm Calm - N/A   Clear
9:54 AM 55.4 °F - 42.8 °F 63% 29.97 in 10.0 mi SE 3.5 mph - N/A   Clear
10:13 AM 57.2 °F - 44.6 °F 63% 29.96 in 7.0 mi SE 3.5 mph - N/A   Clear
10:33 AM 60.8 °F - 46.4 °F 59% 29.96 in 10.0 mi East 3.5 mph - N/A   Clear
10:54 AM 62.6 °F - 44.6 °F 52% 29.95 in 10.0 mi SSE 5.8 mph - N/A   Clear
11:13 AM 62.6 °F - 42.8 °F 48% 29.95 in 10.0 mi SSE 8.1 mph - N/A   Clear
11:33 AM 64.4 °F - 42.8 °F 45% 29.95 in 10.0 mi SE 6.9 mph - N/A   Clear
11:53 AM 64.4 °F - 42.8 °F 45% 29.94 in 10.0 mi SE 4.6 mph - N/A   Clear
12:13 PM 66.2 °F - 39.2 °F 37% 29.93 in 10.0 mi SSE 6.9 mph - N/A   Clear
12:33 PM 66.2 °F - 42.8 °F 43% 29.93 in 10.0 mi North - - N/A   Clear
12:53 PM 66.2 °F - 41.0 °F 40% 29.93 in 10.0 mi Calm Calm - N/A   Clear
1:13 PM 66.2 °F - 41.0 °F 40% 29.92 in 10.0 mi SE 3.5 mph - N/A   Clear
1:34 PM 68.0 °F - 39.2 °F 35% 29.90 in 10.0 mi Calm Calm - N/A   Clear
1:53 PM 68.0 °F - 39.2 °F 35% 29.89 in 10.0 mi South 4.6 mph - N/A   Clear
2:13 PM 69.8 °F - 39.2 °F 33% 29.88 in 10.0 mi South 4.6 mph - N/A   Clear
2:34 PM 69.8 °F - 39.2 °F 33% 29.88 in 10.0 mi Calm Calm - N/A   Clear
2:53 PM 69.8 °F - 39.2 °F 33% 29.88 in 10.0 mi SE 3.5 mph - N/A   Clear
3:14 PM 69.8 °F - 39.2 °F 33% 29.87 in 10.0 mi Calm Calm - N/A   Clear
3:33 PM 69.8 °F - 39.2 °F 33% 29.87 in 10.0 mi WSW 5.8 mph - N/A   Clear
3:54 PM 69.8 °F - 37.4 °F 31% 29.86 in 10.0 mi South 5.8 mph - N/A   Clear
4:13 PM 69.8 °F - 37.4 °F 31% 29.86 in 10.0 mi South 6.9 mph - N/A   Clear
4:33 PM 69.8 °F - 37.4 °F 31% 29.86 in 10.0 mi Calm Calm - N/A   Clear
4:53 PM 69.8 °F - 37.4 °F 31% 29.85 in 10.0 mi SSW 5.8 mph - N/A   Clear
5:13 PM 69.8 °F - 37.4 °F 31% 29.85 in 10.0 mi South 5.8 mph - N/A   Clear
5:33 PM 69.8 °F - 37.4 °F 31% 29.86 in 10.0 mi South 5.8 mph - N/A   Clear
5:53 PM 69.8 °F - 37.4 °F 31% 29.86 in 10.0 mi SSW 3.5 mph - N/A   Clear
6:13 PM 66.2 °F - 37.4 °F 35% 29.86 in 5.0 mi Calm Calm - N/A   Haze
6:34 PM 64.4 °F - 37.4 °F 37% 29.86 in 7.0 mi Calm Calm - N/A   Clear
7:13 PM 62.6 °F - 39.2 °F 42% 29.86 in 10.0 mi Calm Calm - N/A   Clear
7:34 PM 59.0 °F - 39.2 °F 48% 29.86 in 4.0 mi SE 4.6 mph - N/A   Haze
8:13 PM 57.2 °F - 39.2 °F 51% 29.86 in 7.0 mi South 3.5 mph - N/A   Clear
8:34 PM 55.4 °F - 39.2 °F 54% 29.86 in 10.0 mi SSE 4.6 mph - N/A   Clear
9:13 PM 53.6 °F - 39.2 °F 58% 29.87 in 10.0 mi Calm Calm - N/A   Clear
9:34 PM 44.6 °F - 37.4 °F 76% 29.88 in 7.0 mi Calm Calm - N/A   Clear
9:53 PM 48.2 °F - 39.2 °F 71% 29.88 in 10.0 mi Calm Calm - N/A   Clear
10:13 PM 46.4 °F - 39.2 °F 76% 29.88 in 5.0 mi Calm Calm - N/A   Haze
10:34 PM 46.4 °F 44.3 °F 41.0 °F 81% 29.87 in 10.0 mi SSE 4.6 mph - N/A   Clear
10:53 PM 48.2 °F - 39.2 °F 71% 29.88 in 10.0 mi Calm Calm - N/A   Clear
11:13 PM 44.6 °F - 39.2 °F 81% 29.88 in 10.0 mi Calm Calm - N/A   Clear
11:33 PM 44.6 °F - 39.2 °F 81% 29.88 in 10.0 mi Calm Calm - N/A   Clear
11:53 PM 46.4 °F - 39.2 °F 76% 29.88 in 10.0 mi Calm Calm - N/A   Clear